Notices

What's New in latest Release from April 7th, 2021:

- Updated Glossary, including Speed of Maximum Gust, and Total Hourly Precipitation

- Updated national and regional climate services offices contacts and prices information

- Addition of station inventory lists for 1981-2010, 1971-2000, and 1961-1990 Normals.

If you haven't already, please take our survey and provide feedback about our website: https://eccc.sondage-survey.ca/f/LanguageSelection.aspx?s=442ca660-fcf1-47c0-95a9-59707d6fd709

Hourly Data Report for January 08, 2003

TORONTO CITY
ONTARIO

43°40'00.000" N
79°24'00.000" W
112.50 m
6158355
71508
XTO

Download Data

Hourly Data (January 2003)
Hourly Data Report for January 8, 2003
TIME
LST
Temp Definition
°C
Dew Point Definition
°C
Rel Hum Definition
%
Precip. Amount Definition
mm

Wind Dir Definition
10's deg

Wind Spd Definition
km/h
Visibility Definition
km
Stn Press Definition
kPa
Hmdx Definition


Wind Chill Definition


Weather Definition


00:00 0.2 -0.7 94     0 LegendMM 97.91     LegendNANA
01:00
02:00 1.8 0.3 90     0 LegendMM 97.75     LegendNANA
03:00 2.2 0.4 88     0 LegendMM 97.81     LegendNANA
04:00 2.7 0.6 86     0 LegendMM 97.79     LegendNANA
05:00 2.9 0.8 86     0 LegendMM 97.75     LegendNANA
06:00 3.1 1.2 87     0 LegendMM 97.80     LegendNANA
07:00 3.2 1.1 86     0 LegendMM 97.94     LegendNANA
08:00 4.0 -0.1 75     0 LegendMM 97.97     LegendNANA
09:00 4.0 -0.1 75     0 LegendMM 98.06     LegendNANA
10:00 4.1 -0.4 72     0 LegendMM 98.09     LegendNANA
11:00 4.6 -1.1 66     0 LegendMM 98.12     LegendNANA
12:00 4.6 -1.5 65     0 LegendMM 98.09     LegendNANA
13:00 4.8 -1.9 62     0 LegendMM 98.00     LegendNANA
14:00 4.8 -1.9 62     0 LegendMM 97.94     LegendNANA
15:00 4.8 -1.5 64     0 LegendMM 97.88     LegendNANA
16:00 4.2 -1.1 68     0 LegendMM 97.78     LegendNANA
17:00 3.5 0.6 81     0 LegendMM 97.66     LegendNANA
18:00 3.2 0.9 85     0 LegendMM 97.50     LegendNANA
19:00 3.1 1.0 86     0 LegendMM 97.34     LegendNANA
20:00 3.0 0.6 84     0 LegendMM 97.17     LegendNANA
21:00 3.0 1.1 87     0 LegendMM 96.93     LegendNANA
22:00 3.0 1.2 88     0 LegendMM 96.71     LegendNANA
23:00 3.5 0.7 82     0 LegendMM 96.61     LegendNANA

Notes on Data Quality.

Legend

  • E = Estimated
  • M = Missing
  • NA = Not Available*
  • [empty] = Indicates an unobserved value
Date modified: